{"data":{"norad_id":67083,"epoch":"2026-09-20T22:48:21.688128Z","epoch_age_seconds":39316,"freshness":"FRESH","line1":"1 67083U 25298J   26263.95025102  .00002829  00000+0  24478-3 0  9991","line2":"2 67083  69.9998 242.2037 0003704 268.9373  91.1362 14.98335746 42455","mean_motion":14.98335746,"eccentricity":0.0003704,"inclination_deg":69.9998,"raan_deg":242.2037,"arg_perigee_deg":268.9373,"mean_anomaly_deg":91.1362,"bstar":0.00024478,"rev_number":4245,"period_min":96.106630562894,"perigee_km":569.46377710501,"apogee_km":574.61246683537,"semimajor_km":6950.1751219702,"source":"CELESTRAK","updated_at":"2026-09-21T09:00:36.098929Z"}}